Regional Weather Roundup
Issued by NWS

Home | Current Version | Previous Version | Text Only | Print | Product List | Glossary Off
Versions: 1 2 3 4 5 6 7 8 9 10 11 12 13 14 15 16 17 18 19 20 21 22 23 24 25 26 27 28 29 30 31 32 33 34 35 36 37 38 39 40 41 42 43 44 45 46 47 48 49 50

000
ASUS43 KDMX 241701
RWRIA

WEATHER ROUNDUP FOR IOWA
NATIONAL WEATHER SERVICE DES MOINES IA
1100 AM CST SAT FEB 24 2018

NOTE: "FAIR" INDICATES FEW OR NO CLOUDS BELOW 12,000 FEET WITH NO
SIGNIFICANT WEATHER AND/OR OBSTRUCTIONS TO VISIBILITY.

* - THESE STATIONS ARE NOT NWS STATIONS...THUS NOT UNDER NWS
QUALITY CONTROL.  THEY ALSO DO NOT REPORT WEATHER SUCH
AS PRECIPITATION OR FOG.

IAZ001>003-012>014-020>022-031>034-043>046-241800-
   NORTHWEST IOWA

CITY           SKY/WX    TMP DP  RH WIND       PRES   REMARKS
CARROLL *      FOG       27  27 100 E9        29.86F VSB 1/2 WCI  17
CHEROKEE *     LGT SNOW  21  21 100 NE6       29.89F WCI  13
DENISON *      LGT RAIN  23  23 100 NE8       29.87F VSB 1/2 WCI  14
LE MARS *      SNOW      18  18 100 N9        29.89F VSB 1/2 WCI   6
ORANGE CITY *  LGT SNOW  18  18 100 NE5       29.87F VSB 3/4 WCI  11
SHELDON *      LGT SNOW  19  19 100 E8        29.89F VSB 1   WCI   9
SIOUX CITY     LGT SNOW  21  18  88 NE9       29.88F VSB 1   WCI  11
SPENCER        SNOW      25  19  78 E8        29.91F VSB 1/2 WCI  16
STORM LAKE *   LGT SNOW  21  21 100 MISG      29.87F VSB 3/4
$$

IAZ055>058-069>071-079>083-090>094-241800-
   SOUTHWEST IOWA

CITY           SKY/WX    TMP DP  RH WIND       PRES   REMARKS
ATLANTIC *     FOG       30  30 100 E6        29.84F VSB 3/4 WCI  24
AUDUBON *      MIX PCPN  28  27  93 SE6       29.86F VSB 1   WCI  22
CLARINDA *     CLOUDY    32  32 100 E5        29.86F FOG     WCI  27
COUNCIL BLFS * CLOUDY    28  28 100 E3        29.83F FOG
CRESTON *      CLOUDY    32  30  93 E14       29.83F FOG     WCI  22
HARLAN  *      FOG       28  28 100 SE6       29.88F VSB 1   WCI  22
LAMONI         CLOUDY    32  30  92 E9        29.83F FOG     WCI  24
RED OAK *      CLOUDY    30  30 100 SE6       29.85F FOG     WCI  24
SHENANDOAH *   CLOUDY    30  30 100 E5        29.85F FOG     WCI  25
$$

IAZ047>049-059>061-072>074-084-241800-
   CENTRAL IOWA

CITY           SKY/WX    TMP DP  RH WIND       PRES   REMARKS
AMES           MIX PCPN  31  28  89 SE12      29.89F FOG     WCI  22
ANKENY *       MIX PCPN  32  30  93 SE16      29.89F VSB 1   WCI  21
BOONE *        MIX PCPN  30  30 100 SE15      29.87F VSB 3/4 WCI  19
CHARITON *     MIX PCPN  32  32 100 E17       29.85F VSB 3/4 WCI  21
DES MOINES     FRZ DRZL  31  29  92 E13G22    29.88F VSB 1   WCI  21
GRINNELL*      CLOUDY    32  30  93 E20G29    29.91F FOG     WCI  20
KNOXVILLE *    CLOUDY    32  32 100 SE12G20   29.88F FOG     WCI  23
MARSHALLTOWN   CLOUDY    32  30  92 E21       29.87F FOG     WCI  20
NEWTON *       CLOUDY    32  32 100 SE17G25   29.89F FOG     WCI  21
PELLA *        CLOUDY    32  31  96 SE13      29.91F FOG     WCI  22
PERRY *        FOG       31  31  99 E9        29.86F VSB 1   WCI  23
$$

IAZ004>006-015-016-023>025-035-036-241800-
   NORTH CENTRAL IOWA

CITY           SKY/WX    TMP DP  RH WIND       PRES   REMARKS
CLARION *      CLOUDY    27 N/A N/A SE15G24   29.90F FOG     WCI  15
ESTHERVILLE    CLOUDY    18  16  92 NE8       29.92F FOG     WCI   8
FORT DODGE *   LGT SNOW  29  26  89 E7        29.89F FOG     WCI  22
MASON CITY     CLOUDY    26  32 100 E15       29.92F HAZE    WCI  14
FOREST CITY *  CLOUDY   N/A N/A N/A E9        29.91F HAZE
WEBSTER CITY * CLOUDY    30  30 100 SE14      29.88F FOG     WCI  20
IOWA FALLS *   MIX PCPN  31  29  92 E18G24    29.89F WCI  19
$$

IAZ007>011-017>019-026>030-037>042-050>054-066-241800-
   NORTHEAST IOWA

CITY           SKY/WX    TMP DP  RH WIND       PRES   REMARKS
CEDAR RAPIDS   CLOUDY    34  29  82 E20G29    29.95F HAZE    WCI  23
CHARLES CITY *   N/A     30  30 100 E21G28    29.94F WCI  17
CLINTON *      MIX PCPN  36  32  85 E16       30.02F WCI  26
DECORAH *      CLOUDY    28  27  93 E13G20    29.99F WCI  18
DUBUQUE        CLOUDY    31  26  82 E18       30.02F WCI  19
MONTICELLO *   CLOUDY    32  30  93 E14G21    29.99F WCI  22
OELWEIN *      CLOUDY    32  32 100 SE25G31   29.95F WCI  19
WATERLOO       CLOUDY    31  28  89 SE22G29   29.93F WCI  18
$$

IAZ064-065-067-068-078-241800-
   EAST CENTRAL IOWA

CITY           SKY/WX    TMP DP  RH WIND       PRES   REMARKS
DAVENPORT      CLOUDY    36  32  85 E17       30.02F FOG     WCI  26
IOWA CITY      CLOUDY    36  31  82 E12       29.98F HAZE    WCI  28
MT. PLEASANT * CLOUDY    34  34 100 E15       29.94F FOG     WCI  24
MUSCATINE *    CLOUDY    36  32  87 E13       29.98F FOG     WCI  27
QUAD CITIES    LGT RAIN  36  34  92 E18       30.00F FOG     WCI  26
$$

IAZ062-063-075>077-085>089-095>099-241800-
   SOUTHEAST IOWA

CITY           SKY/WX    TMP DP  RH WIND       PRES   REMARKS
BURLINGTON     CLOUDY    35  35 100 E14G22    29.93F FOG     WCI  26
FAIRFIELD *    CLOUDY    34  32  93 E14G22    29.92F FOG     WCI  24
FORT MADISON * CLOUDY    34  34 100 E13G18    29.93F FOG     WCI  25
KEOKUK *       CLOUDY    36  36 100 E13G20    29.93F FOG     WCI  27
OSKALOOSA *    CLOUDY    32  31  96 E17G24    29.90F FOG     WCI  21
OTTUMWA        FRZ RAIN  33  31  92 E18       29.89F FOG     WCI  22
WASHINGTON *   FOG       34  34 100 E17       29.94F VSB 1   WCI  23
$$

ABBREVIATIONS USED IN REMARKS
   TC - TEMPERATURES IN CELSIUS
  WCI - WIND CHILL INDEX
   HX - HEAT INDEX
  VSB - VISIBILITY
$$





USA.gov is the U.S. government's official web portal to all federal, state and local government web resources and services.